| time (UTC) | temp F | wind direction | speed knots | gust knots | rain 1hr in | rain 24hr in | rain mn in | humidity % | barometer mb |
| 20260506234302 | 55 | 0 | 0.0 | 1.7 | 0.00 | 0.67 | 0.00 | 55 | 1010.5 |
| 20260506233901 | 55 | 23 | 0.0 | 0.9 | 0.00 | 0.67 | 0.00 | 55 | 1010.5 |
| 20260506233459 | 55 | 113 | 0.0 | 0.0 | 0.00 | 0.67 | 0.00 | 55 | 1010.6 |
| 20260506233058 | 55 | 158 | 0.0 | 0.0 | 0.00 | 0.67 | 0.00 | 55 | 1010.5 |
| 20260506232657 | 55 | 180 | 0.0 | 0.9 | 0.00 | 0.67 | 0.00 | 55 | 1010.5 |
| 20260506231654 | 55 | 135 | 0.0 | 0.0 | 0.00 | 0.67 | 0.00 | 54 | 1010.6 |
| 20260506231253 | 55 | 45 | 0.0 | 0.9 | 0.00 | 0.67 | 0.00 | 54 | 1010.6 |
| 20260506230852 | 55 | 135 | 0.0 | 0.9 | 0.00 | 0.67 | 0.00 | 54 | 1010.6 |
| 20260506230451 | 55 | 90 | 0.0 | 0.0 | 0.00 | 0.67 | 0.00 | 53 | 1010.5 |
| 20260506230050 | 55 | 225 | 0.0 | 0.0 | 0.00 | 0.67 | 0.00 | 54 | 1010.6 |
| 20260506225448 | 55 | 135 | 0.0 | 0.9 | 0.00 | 0.67 | 0.00 | 54 | 1010.5 |
| 20260506225047 | 55 | 45 | 0.0 | 0.9 | 0.00 | 0.67 | 0.00 | 54 | 1010.5 |
| 20260506224646 | 55 | 68 | 0.0 | 0.0 | 0.00 | 0.67 | 0.00 | 54 | 1010.5 |
| 20260506224244 | 55 | 90 | 0.0 | 0.0 | 0.00 | 0.67 | 0.00 | 54 | 1010.5 |
| 20260506223843 | 55 | 135 | 0.0 | 0.0 | 0.00 | 0.67 | 0.00 | 54 | 1010.5 |
| 20260506223442 | 55 | 135 | 0.0 | 0.0 | 0.00 | 0.67 | 0.00 | 54 | 1010.5 |
| 20260506222840 | 55 | 180 | 0.0 | 0.0 | 0.00 | 0.67 | 0.00 | 53 | 1010.5 |
| 20260506222439 | 55 | 225 | 0.0 | 0.0 | 0.00 | 0.67 | 0.00 | 53 | 1010.5 |
| 20260506222038 | 55 | 0 | 0.0 | 0.9 | 0.00 | 0.67 | 0.00 | 53 | 1010.5 |
| 20260506221638 | 55 | 180 | 0.0 | 0.0 | 0.00 | 0.67 | 0.00 | 53 | 1010.6 |
| 20260506221236 | 55 | 0 | 0.0 | 0.9 | 0.00 | 0.67 | 0.00 | 53 | 1010.6 |
| 20260506220835 | 55 | 248 | 0.0 | 0.9 | 0.00 | 0.67 | 0.00 | 53 | 1010.5 |
| 20260506220434 | 55 | 180 | 0.0 | 0.9 | 0.00 | 0.00 | 0.00 | 53 | 1010.5 |
| 20260506220014 | 55 | 45 | 0.0 | 0.9 | 0.00 | 0.67 | 0.67 | 53 | 1010.6 |
| 20260506215613 | 55 | 225 | 0.0 | 0.0 | 0.00 | 0.67 | 0.67 | 53 | 1010.6 |
| 20260506215212 | 55 | 180 | 0.0 | 0.9 | 0.00 | 0.67 | 0.67 | 53 | 1010.6 |
| 20260506214810 | 55 | 45 | 0.0 | 0.9 | 0.00 | 0.67 | 0.67 | 53 | 1010.5 |
| 20260506214409 | 55 | 180 | 0.0 | 0.0 | 0.00 | 0.67 | 0.67 | 53 | 1010.5 |
| 20260506213807 | 55 | 270 | 0.0 | 0.9 | 0.00 | 0.67 | 0.67 | 55 | 1010.5 |
| 20260506213407 | 55 | 135 | 0.0 | 0.0 | 0.00 | 0.67 | 0.67 | 55 | 1010.5 |
| 20260506213005 | 55 | 45 | 0.0 | 0.0 | 0.00 | 0.67 | 0.67 | 55 | 1010.5 |
| 20260506212604 | 55 | 45 | 0.0 | 0.0 | 0.00 | 0.67 | 0.67 | 56 | 1010.6 |
| 20260506212203 | 54 | 225 | 0.0 | 0.9 | 0.00 | 0.67 | 0.67 | 57 | 1010.5 |
| 20260506211802 | 54 | 90 | 0.0 | 0.9 | 0.00 | 0.67 | 0.67 | 57 | 1010.5 |
| 20260506211402 | 54 | 135 | 0.0 | 0.0 | 0.00 | 0.67 | 0.67 | 57 | 1010.4 |
| 20260506210759 | 54 | 225 | 0.0 | 0.0 | 0.00 | 0.67 | 0.67 | 57 | 1010.5 |
| 20260506210359 | 55 | 203 | 0.0 | 0.0 | 0.00 | 0.67 | 0.67 | 57 | 1010.3 |
| 20260506205959 | 55 | 135 | 0.0 | 0.0 | 0.00 | 0.67 | 0.67 | 57 | 1010.5 |
| 20260506205556 | 55 | 293 | 0.0 | 0.0 | 0.00 | 0.67 | 0.67 | 57 | 1010.5 |
| 20260506205155 | 55 | 135 | 0.0 | 0.9 | 0.00 | 0.67 | 0.67 | 57 | 1010.4 |
| 20260506204754 | 55 | 135 | 0.0 | 0.9 | 0.00 | 0.67 | 0.67 | 57 | 1010.4 |
| 20260506204354 | 55 | 135 | 0.0 | 0.0 | 0.00 | 0.67 | 0.67 | 56 | 1010.6 |
| 20260506203954 | 55 | 113 | 0.0 | 0.0 | 0.00 | 0.67 | 0.67 | 57 | 1010.4 |
| 20260506202951 | 55 | 135 | 0.0 | 0.9 | 0.00 | 0.67 | 0.67 | 57 | 1010.3 |
| 20260506202550 | 55 | 135 | 0.0 | 0.0 | 0.00 | 0.67 | 0.67 | 56 | 1010.4 |
| 20260506202150 | 54 | 225 | 0.0 | 0.0 | 0.00 | 0.67 | 0.67 | 55 | 1010.4 |
| 20260506201750 | 55 | 180 | 0.0 | 0.0 | 0.00 | 0.67 | 0.67 | 55 | 1010.3 |
| 20260506201348 | 55 | 225 | 0.0 | 0.0 | 0.00 | 0.67 | 0.67 | 55 | 1010.3 |
| 20260506200946 | 55 | 135 | 0.0 | 0.0 | 0.00 | 0.67 | 0.67 | 54 | 1010.2 |
| 20260506195945 | 55 | 135 | 0.0 | 0.0 | 0.00 | 0.67 | 0.67 | 53 | 1010.0 |
| 20260506195543 | 55 | 180 | 0.0 | 0.0 | 0.00 | 0.67 | 0.67 | 53 | 1009.9 |
| 20260506195142 | 55 | 180 | 0.0 | 0.0 | 0.00 | 0.67 | 0.67 | 53 | 1009.9 |
| 20260506194741 | 55 | 135 | 0.0 | 0.0 | 0.00 | 0.67 | 0.67 | 53 | 1009.9 |
| 20260506194340 | 55 | 225 | 0.0 | 0.0 | 0.00 | 0.67 | 0.67 | 52 | 1009.8 |
| 20260506193938 | 56 | 135 | 0.0 | 0.0 | 0.00 | 0.67 | 0.67 | 51 | 1009.7 |
| 20260506193737 | 56 | 180 | 0.0 | 0.0 | 0.00 | 0.67 | 0.67 | 51 | 1009.8 |
| 20260506193336 | 56 | 90 | 0.0 | 0.0 | 0.00 | 0.67 | 0.67 | 50 | 1009.7 |
| 20260506192935 | 56 | 135 | 0.0 | 0.0 | 0.00 | 0.67 | 0.67 | 51 | 1009.7 |
| 20260506192533 | 56 | 180 | 0.0 | 0.0 | 0.00 | 0.67 | 0.67 | 51 | 1009.7 |
| 20260506192132 | 56 | 135 | 0.0 | 0.0 | 0.00 | 0.67 | 0.67 | 51 | 1009.6 |
| 20260506191731 | 56 | 90 | 0.0 | 0.9 | 0.00 | 0.67 | 0.67 | 51 | 1009.6 |
| 20260506191329 | 56 | 315 | 0.0 | 0.0 | 0.00 | 0.67 | 0.67 | 50 | 1009.5 |
| 20260506190928 | 56 | 90 | 0.0 | 0.0 | 0.00 | 0.67 | 0.67 | 50 | 1009.4 |
| 20260506190527 | 56 | 68 | 0.0 | 0.0 | 0.00 | 0.67 | 0.67 | 50 | 1009.4 |
| 20260506185123 | 56 | 45 | 0.0 | 0.0 | 0.00 | 0.67 | 0.67 | 49 | 1009.2 |
| 20260506184722 | 56 | 135 | 0.0 | 0.0 | 0.00 | 0.67 | 0.67 | 48 | 1009.3 |
| 20260506184321 | 56 | 315 | 0.0 | 0.0 | 0.00 | 0.67 | 0.67 | 48 | 1009.2 |
| 20260506183919 | 56 | 68 | 0.0 | 0.0 | 0.00 | 0.67 | 0.67 | 48 | 1009.1 |
| 20260506183518 | 56 | 270 | 0.0 | 0.0 | 0.00 | 0.67 | 0.67 | 49 | 1008.9 |
| 20260506183116 | 56 | 45 | 0.0 | 0.9 | 0.00 | 0.67 | 0.67 | 48 | 1009.0 |
| 20260506182715 | 56 | 135 | 0.0 | 0.0 | 0.00 | 0.67 | 0.67 | 48 | 1008.9 |
| 20260506181712 | 56 | 113 | 0.0 | 0.0 | 0.00 | 0.67 | 0.67 | 50 | 1008.8 |
| 20260506181311 | 56 | 135 | 0.0 | 0.0 | 0.00 | 0.67 | 0.67 | 50 | 1008.8 |
| 20260506180910 | 56 | 135 | 0.0 | 0.0 | 0.00 | 0.67 | 0.67 | 51 | 1008.6 |
| 20260506180508 | 56 | 135 | 0.0 | 0.0 | 0.00 | 0.67 | 0.67 | 50 | 1008.5 |
| 20260506180108 | 56 | 180 | 0.0 | 0.0 | 0.00 | 0.67 | 0.67 | 50 | 1008.5 |
| 20260506175706 | 56 | 135 | 0.0 | 0.0 | 0.00 | 0.67 | 0.67 | 50 | 1008.5 |
| 20260506175306 | 56 | 135 | 0.0 | 0.0 | 0.00 | 0.67 | 0.67 | 50 | 1008.5 |
| 20260506174904 | 56 | 180 | 0.0 | 0.0 | 0.00 | 0.67 | 0.67 | 49 | 1008.5 |
| 20260506174302 | 56 | 180 | 0.0 | 0.0 | 0.00 | 0.67 | 0.67 | 48 | 1008.5 |
| 20260506173902 | 56 | 180 | 0.0 | 0.0 | 0.00 | 0.67 | 0.67 | 48 | 1008.5 |
| 20260506173500 | 57 | 135 | 0.0 | 0.0 | 0.00 | 0.67 | 0.67 | 47 | 1008.5 |
| 20260506173100 | 57 | 90 | 0.0 | 0.0 | 0.00 | 0.67 | 0.67 | 47 | 1008.4 |
| 20260506172658 | 57 | 135 | 0.0 | 0.0 | 0.00 | 0.67 | 0.67 | 46 | 1008.4 |
| 20260506172256 | 57 | 270 | 0.0 | 0.0 | 0.00 | 0.67 | 0.67 | 46 | 1008.3 |
| 20260506171855 | 57 | 225 | 0.0 | 0.0 | 0.00 | 0.67 | 0.67 | 46 | 1008.2 |
| 20260506170455 | 58 | 113 | 0.0 | 0.9 | 0.00 | 0.67 | 0.67 | 44 | 1008.2 |
| 20260506170050 | 58 | 90 | 0.0 | 0.0 | 0.00 | 0.67 | 0.67 | 44 | 1008.2 |
| 20260506165649 | 58 | 90 | 0.0 | 0.0 | 0.00 | 0.67 | 0.67 | 43 | 1008.1 |
| 20260506165248 | 58 | 90 | 0.0 | 0.0 | 0.00 | 0.67 | 0.67 | 42 | 1008.3 |
| 20260506164245 | 59 | 270 | 0.0 | 0.0 | 0.00 | 0.67 | 0.67 | 40 | 1008.4 |
| 20260506163844 | 59 | 45 | 0.0 | 0.0 | 0.00 | 0.67 | 0.67 | 39 | 1008.3 |
| 20260506163442 | 59 | 45 | 0.0 | 0.0 | 0.00 | 0.67 | 0.67 | 37 | 1008.2 |
| 20260506163041 | 60 | 180 | 0.0 | 0.0 | 0.00 | 0.67 | 0.67 | 36 | 1008.3 |
| 20260506162639 | 60 | 90 | 0.0 | 0.0 | 0.00 | 0.67 | 0.67 | 35 | 1008.1 |
| 20260506162238 | 60 | 135 | 0.0 | 0.0 | 0.00 | 0.67 | 0.67 | 35 | 1008.2 |
| 20260506161836 | 61 | 180 | 0.0 | 0.0 | 0.00 | 0.67 | 0.67 | 34 | 1008.2 |
| 20260506161435 | 61 | 135 | 0.0 | 0.0 | 0.00 | 0.67 | 0.67 | 32 | 1008.2 |
| 20260506160834 | 63 | 0 | 0.0 | 0.9 | 0.00 | 0.67 | 0.67 | 32 | 1008.2 |
| 20260506160032 | 61 | 135 | 0.0 | 0.0 | 0.00 | 0.67 | 0.67 | 36 | 1008.1 |
| 20260506155631 | 61 | 135 | 0.0 | 0.9 | 0.00 | 0.67 | 0.67 | 35 | 1008.1 |
| 20260506155229 | 61 | 135 | 0.0 | 0.0 | 0.00 | 0.67 | 0.67 | 37 | 1008.0 |
| 20260506154828 | 60 | 90 | 0.0 | 1.7 | 0.00 | 0.67 | 0.67 | 38 | 1008.1 |
| 20260506154426 | 61 | 180 | 0.0 | 1.7 | 0.00 | 0.67 | 0.67 | 37 | 1008.0 |
| 20260506154225 | 61 | 0 | 0.0 | 0.9 | 0.00 | 0.67 | 0.67 | 35 | 1008.0 |
| 20260506153825 | 61 | 135 | 0.0 | 0.0 | 0.00 | 0.67 | 0.67 | 35 | 1008.1 |
| 20260506153423 | 61 | 158 | 0.0 | 0.9 | 0.00 | 0.67 | 0.67 | 35 | 1008.0 |
| 20260506153022 | 61 | 180 | 0.0 | 0.9 | 0.00 | 0.67 | 0.67 | 34 | 1008.0 |
| 20260506152620 | 62 | 45 | 0.0 | 0.0 | 0.00 | 0.67 | 0.67 | 34 | 1007.9 |
| 20260506152219 | 63 | 135 | 0.0 | 0.9 | 0.00 | 0.67 | 0.67 | 32 | 1008.1 |
| 20260506151818 | 63 | 315 | 0.0 | 0.0 | 0.00 | 0.67 | 0.67 | 32 | 1007.9 |
| 20260506151417 | 63 | 135 | 0.0 | 0.0 | 0.00 | 0.67 | 0.67 | 31 | 1007.9 |
| 20260506150414 | 64 | 135 | 0.0 | 0.0 | 0.00 | 0.67 | 0.67 | 31 | 1008.0 |
| 20260506150013 | 64 | 135 | 0.0 | 0.0 | 0.00 | 0.67 | 0.67 | 31 | 1007.9 |
| 20260506145612 | 64 | 270 | 0.0 | 0.0 | 0.00 | 0.67 | 0.67 | 32 | 1007.8 |
| 20260506145211 | 64 | 180 | 0.0 | 0.9 | 0.00 | 0.67 | 0.67 | 32 | 1007.8 |
| 20260506144809 | 65 | 315 | 0.0 | 0.0 | 0.00 | 0.67 | 0.67 | 31 | 1008.0 |
| 20260506144408 | 65 | 135 | 0.0 | 0.9 | 0.00 | 0.67 | 0.67 | 33 | 1007.9 |
| 20260506144008 | 65 | 315 | 0.9 | 2.6 | 0.00 | 0.67 | 0.67 | 30 | 1007.9 |
| 20260506143406 | 65 | 180 | 0.0 | 0.0 | 0.00 | 0.67 | 0.67 | 34 | 1007.8 |
| 20260506143005 | 66 | 158 | 0.0 | 0.9 | 0.00 | 0.67 | 0.67 | 30 | 1007.9 |
| 20260506142603 | 67 | 0 | 0.0 | 0.9 | 0.00 | 0.67 | 0.67 | 29 | 1007.9 |
| 20260506141801 | 68 | 135 | 0.0 | 0.9 | 0.00 | 0.67 | 0.67 | 30 | 1008.1 |
| 20260506141359 | 69 | 90 | 0.0 | 0.0 | 0.00 | 0.67 | 0.67 | 29 | 1007.9 |
| 20260506140958 | 69 | 135 | 0.0 | 0.0 | 0.00 | 0.67 | 0.67 | 28 | 1008.1 |
| 20260506140757 | 68 | 90 | 0.0 | 2.6 | 0.00 | 0.67 | 0.67 | 31 | 1007.9 |
| 20260506140356 | 68 | 225 | 0.0 | 0.9 | 0.00 | 0.67 | 0.67 | 34 | 1007.9 |
| 20260506135955 | 68 | 180 | 0.0 | 0.9 | 0.00 | 0.67 | 0.67 | 34 | 1007.9 |
| 20260506135553 | 67 | 315 | 0.0 | 0.9 | 0.00 | 0.67 | 0.67 | 35 | 1007.9 |
| 20260506135153 | 67 | 180 | 0.0 | 0.0 | 0.00 | 0.67 | 0.67 | 34 | 1008.1 |
| 20260506134751 | 67 | 270 | 0.0 | 0.0 | 0.00 | 0.67 | 0.67 | 32 | 1008.0 |
| 20260506134350 | 67 | 180 | 0.0 | 0.0 | 0.00 | 0.67 | 0.67 | 34 | 1008.1 |
| 20260506133347 | 64 | 0 | 0.0 | 0.9 | 0.00 | 0.67 | 0.67 | 36 | 1008.1 |
| 20260506132946 | 63 | 158 | 0.0 | 0.0 | 0.00 | 0.67 | 0.67 | 34 | 1008.1 |
| 20260506132545 | 64 | 293 | 0.0 | 0.9 | 0.00 | 0.67 | 0.67 | 33 | 1008.0 |
| 20260506132144 | 65 | 90 | 0.0 | 3.5 | 0.00 | 0.67 | 0.67 | 35 | 1008.1 |
| 20260506131743 | 65 | 90 | 0.9 | 3.5 | 0.00 | 0.67 | 0.67 | 35 | 1008.1 |
| 20260506131141 | 67 | 135 | 1.7 | 4.3 | 0.00 | 0.67 | 0.67 | 34 | 1008.0 |
| 20260506130741 | 66 | 135 | 0.0 | 1.7 | 0.00 | 0.67 | 0.67 | 34 | 1008.1 |
| 20260506130340 | 67 | 90 | 0.0 | 0.0 | 0.00 | 0.67 | 0.67 | 34 | 1008.0 |
| 20260506125938 | 67 | 158 | 1.7 | 6.1 | 0.00 | 0.67 | 0.67 | 34 | 1008.1 |
| 20260506125537 | 67 | 135 | 0.0 | 0.0 | 0.00 | 0.67 | 0.67 | 35 | 1008.1 |
| 20260506125136 | 68 | 135 | 0.0 | 0.9 | 0.00 | 0.67 | 0.67 | 34 | 1008.1 |
| 20260506124535 | 67 | 135 | 0.0 | 0.0 | 0.00 | 0.67 | 0.67 | 34 | 1008.2 |
| 20260506124134 | 66 | 315 | 0.0 | 0.0 | 0.00 | 0.67 | 0.67 | 39 | 1008.1 |
| 20260506123732 | 65 | 135 | 0.0 | 0.0 | 0.00 | 0.67 | 0.67 | 39 | 1008.1 |
| 20260506123332 | 65 | 90 | 0.0 | 0.0 | 0.00 | 0.67 | 0.67 | 38 | 1008.0 |
| 20260506122930 | 64 | 225 | 0.0 | 0.9 | 0.00 | 0.67 | 0.67 | 41 | 1008.2 |
| 20260506122528 | 64 | 90 | 0.0 | 0.9 | 0.00 | 0.67 | 0.67 | 41 | 1008.0 |
| 20260506122127 | 64 | 135 | 0.0 | 0.0 | 0.00 | 0.67 | 0.67 | 40 | 1008.0 |
| 20260506121128 | 62 | 135 | 0.0 | 0.0 | 0.00 | 0.67 | 0.67 | 42 | 1007.9 |
| 20260506120725 | 62 | 90 | 0.0 | 0.9 | 0.00 | 0.67 | 0.67 | 42 | 1008.0 |
| 20260506120323 | 63 | 90 | 0.0 | 0.9 | 0.00 | 0.67 | 0.67 | 41 | 1007.9 |
| 20260506115922 | 63 | 135 | 0.0 | 1.7 | 0.00 | 0.67 | 0.67 | 39 | 1007.8 |
| 20260506115520 | 64 | 90 | 0.0 | 0.9 | 0.00 | 0.67 | 0.67 | 37 | 1007.9 |
| 20260506115119 | 65 | 158 | 0.0 | 0.0 | 0.00 | 0.67 | 0.67 | 38 | 1008.0 |
| 20260506114517 | 65 | 135 | 0.0 | 0.9 | 0.00 | 0.67 | 0.67 | 42 | 1007.9 |
| 20260506114116 | 63 | 135 | 0.0 | 1.7 | 0.00 | 0.67 | 0.67 | 41 | 1008.0 |
| 20260506113714 | 64 | 90 | 0.0 | 0.0 | 0.00 | 0.67 | 0.67 | 38 | 1008.0 |
| 20260506113313 | 65 | 180 | 0.9 | 3.5 | 0.00 | 0.67 | 0.67 | 36 | 1008.1 |
| 20260506112912 | 66 | 135 | 0.9 | 2.6 | 0.00 | 0.67 | 0.67 | 38 | 1007.9 |
| 20260506112510 | 65 | 135 | 0.0 | 0.9 | 0.00 | 0.67 | 0.67 | 42 | 1008.0 |
| 20260506112309 | 64 | 180 | 0.0 | 0.9 | 0.00 | 0.67 | 0.67 | 40 | 1008.0 |
| 20260506111908 | 64 | 180 | 0.0 | 0.9 | 0.00 | 0.67 | 0.67 | 36 | 1007.9 |
| 20260506111106 | 65 | 135 | 1.7 | 4.3 | 0.00 | 0.67 | 0.67 | 39 | 1007.9 |
| 20260506110704 | 64 | 135 | 0.0 | 0.0 | 0.00 | 0.67 | 0.67 | 39 | 1008.0 |
| 20260506110304 | 64 | 135 | 1.7 | 3.5 | 0.00 | 0.67 | 0.67 | 41 | 1008.0 |
| 20260506105903 | 64 | 180 | 0.0 | 0.9 | 0.00 | 0.67 | 0.67 | 40 | 1007.9 |
| 20260506105501 | 64 | 180 | 0.0 | 0.9 | 0.00 | 0.67 | 0.67 | 41 | 1008.1 |
| 20260506105101 | 63 | 135 | 0.0 | 0.9 | 0.00 | 0.67 | 0.67 | 41 | 1008.1 |
| 20260506103657 | 62 | 135 | 0.0 | 0.9 | 0.00 | 0.67 | 0.67 | 42 | 1008.1 |
| 20260506103256 | 62 | 135 | 0.0 | 0.9 | 0.00 | 0.67 | 0.67 | 43 | 1008.0 |
| 20260506102854 | 62 | 135 | 0.0 | 2.6 | 0.00 | 0.67 | 0.67 | 43 | 1008.0 |
| 20260506102453 | 63 | 135 | 0.0 | 0.9 | 0.00 | 0.67 | 0.67 | 44 | 1008.0 |
| 20260506102052 | 61 | 90 | 0.0 | 0.9 | 0.00 | 0.67 | 0.67 | 43 | 1007.8 |
| 20260506101450 | 62 | 135 | 0.0 | 0.9 | 0.00 | 0.67 | 0.67 | 43 | 1007.9 |
| 20260506101048 | 62 | 293 | 1.7 | 4.3 | 0.00 | 0.67 | 0.67 | 43 | 1007.8 |
| 20260506100647 | 63 | 90 | 1.7 | 6.1 | 0.00 | 0.67 | 0.67 | 42 | 1007.8 |
| 20260506100246 | 63 | 45 | 0.9 | 1.7 | 0.00 | 0.67 | 0.67 | 44 | 1007.9 |
| 20260506095845 | 63 | 45 | 0.0 | 0.9 | 0.00 | 0.67 | 0.67 | 44 | 1007.9 |
| 20260506095444 | 63 | 0 | 0.0 | 0.0 | 0.00 | 0.67 | 0.67 | 45 | 1007.9 |
| 20260506095042 | 62 | 158 | 0.0 | 0.0 | 0.00 | 0.67 | 0.67 | 51 | 1007.9 |
| 20260506094440 | 60 | 135 | 0.0 | 0.0 | 0.00 | 0.67 | 0.67 | 54 | 1007.8 |
| 20260506094039 | 58 | 315 | 0.0 | 0.9 | 0.00 | 0.67 | 0.67 | 58 | 1008.0 |
| 20260506093637 | 58 | 135 | 0.0 | 0.0 | 0.00 | 0.67 | 0.67 | 58 | 1008.0 |
| 20260506093236 | 58 | 135 | 0.0 | 0.9 | 0.00 | 0.67 | 0.67 | 57 | 1007.8 |
| 20260506092834 | 58 | 315 | 0.0 | 0.9 | 0.00 | 0.67 | 0.67 | 58 | 1007.9 |
| 20260506092433 | 58 | 135 | 0.0 | 0.9 | 0.00 | 0.67 | 0.67 | 60 | 1007.7 |
| 20260506092033 | 58 | 270 | 0.0 | 0.0 | 0.00 | 0.67 | 0.67 | 61 | 1008.0 |
| 20260506091631 | 58 | 90 | 0.0 | 0.9 | 0.00 | 0.67 | 0.67 | 61 | 1007.7 |
| 20260506090630 | 58 | 135 | 0.0 | 0.9 | 0.00 | 0.67 | 0.67 | 60 | 1007.8 |
| 20260506090228 | 58 | 180 | 0.0 | 1.7 | 0.00 | 0.67 | 0.67 | 60 | 1007.3 |
| 20260506085828 | 58 | 90 | 0.0 | 0.0 | 0.00 | 0.67 | 0.67 | 61 | 1007.3 |
| 20260506085426 | 58 | 90 | 0.0 | 0.0 | 0.00 | 0.67 | 0.67 | 61 | 1007.5 |
| 20260506084824 | 58 | 315 | 0.0 | 0.9 | 0.00 | 0.67 | 0.67 | 61 | 1007.3 |
| 20260506084422 | 58 | 225 | 1.7 | 7.0 | 0.00 | 0.67 | 0.67 | 61 | 1007.2 |
| 20260506084021 | 58 | 315 | 0.0 | 1.7 | 0.00 | 0.67 | 0.67 | 62 | 1007.2 |
| 20260506083620 | 58 | 45 | 0.9 | 4.3 | 0.00 | 0.67 | 0.67 | 62 | 1007.1 |
| 20260506083218 | 58 | 90 | 0.0 | 1.7 | 0.00 | 0.67 | 0.67 | 64 | 1007.1 |
| 20260506082817 | 58 | 270 | 0.9 | 4.3 | 0.00 | 0.67 | 0.67 | 64 | 1007.3 |
| 20260506082215 | 58 | 0 | 0.0 | 0.9 | 0.00 | 0.67 | 0.67 | 65 | 1006.7 |
| 20260506081813 | 58 | 180 | 1.7 | 9.6 | 0.00 | 0.67 | 0.67 | 68 | 1007.0 |
| 20260506081412 | 58 | 270 | 0.0 | 1.7 | 0.00 | 0.67 | 0.67 | 69 | 1006.8 |
| 20260506081011 | 58 | 225 | 0.0 | 0.9 | 0.00 | 0.67 | 0.67 | 69 | 1006.8 |
| 20260506080609 | 58 | 270 | 0.0 | 1.7 | 0.00 | 0.67 | 0.67 | 73 | 1006.8 |
| 20260506080208 | 57 | 0 | 1.7 | 10.4 | 0.00 | 0.67 | 0.67 | 74 | 1007.1 |
| 20260506072958 | 56 | 113 | 3.5 | 7.8 | 0.11 | 0.67 | 0.67 | 87 | 1006.5 |
| 20260506072558 | 56 | 180 | 0.0 | 0.9 | 0.11 | 0.67 | 0.67 | 87 | 1006.6 |
| 20260506072156 | 56 | 180 | 0.0 | 1.7 | 0.11 | 0.67 | 0.67 | 87 | 1006.5 |
| 20260506071755 | 56 | 135 | 0.0 | 0.0 | 0.11 | 0.67 | 0.67 | 87 | 1006.5 |
| 20260506071354 | 56 | 180 | 0.0 | 1.7 | 0.11 | 0.67 | 0.67 | 86 | 1006.5 |
| 20260506070953 | 57 | 90 | 1.7 | 11.3 | 0.11 | 0.67 | 0.67 | 86 | 1006.4 |
| 20260506070552 | 56 | 293 | 4.3 | 8.7 | 0.11 | 0.67 | 0.67 | 86 | 1006.5 |
| 20260506070351 | 56 | 45 | 0.0 | 0.9 | 0.11 | 0.67 | 0.67 | 85 | 1006.3 |
| 20260506062138 | 56 | 225 | 0.0 | 0.0 | 0.00 | 0.61 | 0.55 | 82 | 1006.1 |
| 20260506061736 | 56 | 135 | 0.0 | 0.0 | 0.00 | 0.62 | 0.55 | 82 | 1006.4 |
| 20260506061335 | 56 | 90 | 0.0 | 0.0 | 0.00 | 0.64 | 0.55 | 83 | 1006.4 |
| 20260506060733 | 55 | 135 | 0.0 | 0.9 | 0.00 | 0.67 | 0.55 | 84 | 1006.6 |
| 20260506060332 | 55 | 270 | 0.0 | 0.0 | 0.00 | 0.72 | 0.55 | 84 | 1006.6 |
| 20260506051117 | 53 | 270 | 0.0 | 0.0 | 0.01 | 1.18 | 0.55 | 86 | 1006.8 |
| 20260506050715 | 52 | 113 | 0.0 | 0.0 | 0.01 | 1.21 | 0.55 | 85 | 1006.8 |
| 20260506050314 | 52 | 113 | 0.0 | 0.0 | 0.02 | 1.24 | 0.55 | 85 | 1006.7 |
| 20260506044909 | 52 | 90 | 0.0 | 0.0 | 0.03 | 1.34 | 0.55 | 85 | 1006.7 |
| 20260506044508 | 52 | 135 | 0.0 | 0.0 | 0.04 | 1.37 | 0.55 | 85 | 1006.9 |
| 20260506044108 | 52 | 225 | 0.0 | 0.0 | 0.04 | 1.39 | 0.55 | 85 | 1006.9 |
| 20260506043706 | 52 | 270 | 0.0 | 0.0 | 0.04 | 1.40 | 0.55 | 85 | 1006.8 |
| 20260506043505 | 52 | 45 | 0.0 | 0.0 | 0.04 | 1.40 | 0.55 | 85 | 1006.9 |
| 20260506043104 | 52 | 45 | 0.0 | 0.0 | 0.04 | 1.42 | 0.55 | 85 | 1007.0 |
| 20260506042702 | 52 | 45 | 0.0 | 0.0 | 0.03 | 1.42 | 0.55 | 85 | 1007.1 |
| 20260506042301 | 52 | 180 | 0.0 | 0.0 | 0.03 | 1.44 | 0.54 | 85 | 1007.2 |
| 20260506041859 | 52 | 45 | 0.0 | 0.0 | 0.03 | 1.45 | 0.54 | 85 | 1007.2 |
| 20260506041458 | 52 | 0 | 0.0 | 0.0 | 0.03 | 1.46 | 0.54 | 85 | 1007.2 |
| 20260506040456 | 52 | 68 | 0.0 | 1.7 | 0.02 | 1.57 | 0.53 | 84 | 1007.4 |
| 20260506040054 | 52 | 270 | 0.0 | 0.0 | 0.01 | 1.55 | 0.53 | 84 | 1007.5 |
| 20260506035653 | 52 | 90 | 0.0 | 0.0 | 0.01 | 1.57 | 0.51 | 84 | 1007.7 |
| 20260506035251 | 52 | 270 | 0.0 | 0.0 | 0.00 | 1.55 | 0.51 | 84 | 1007.6 |
| 20260506034850 | 52 | 270 | 0.0 | 0.0 | 0.01 | 1.55 | 0.50 | 85 | 1007.5 |
| 20260506034449 | 52 | 270 | 0.0 | 0.0 | 0.04 | 1.57 | 0.50 | 85 | 1007.3 |
| 20260506033847 | 52 | 270 | 0.0 | 0.0 | 0.05 | 1.57 | 0.50 | 84 | 1007.4 |
| 20260506033446 | 52 | 45 | 0.0 | 0.0 | 0.08 | 1.59 | 0.50 | 84 | 1007.3 |
| 20260506033044 | 52 | 135 | 0.0 | 0.0 | 0.09 | 1.60 | 0.50 | 83 | 1007.3 |
| 20260506032643 | 52 | 270 | 0.0 | 0.0 | 0.10 | 1.61 | 0.50 | 83 | 1007.2 |
| 20260506032242 | 52 | 225 | 0.0 | 0.0 | 0.12 | 1.62 | 0.50 | 84 | 1007.3 |
| 20260506031840 | 52 | 225 | 0.0 | 0.0 | 0.17 | 1.62 | 0.50 | 82 | 1007.4 |
| 20260506031439 | 52 | 225 | 0.0 | 0.0 | 0.22 | 1.62 | 0.50 | 82 | 1007.4 |
| 20260506031238 | 52 | 225 | 0.0 | 0.0 | 0.23 | 1.62 | 0.50 | 82 | 1007.3 |
| 20260506030836 | 52 | 225 | 0.0 | 0.0 | 0.24 | 1.62 | 0.50 | 82 | 1007.3 |
| 20260506030435 | 52 | 225 | 0.0 | 0.0 | 0.25 | 1.64 | 0.50 | 82 | 1007.5 |
| 20260506030033 | 52 | 225 | 0.0 | 0.0 | 0.27 | 1.64 | 0.50 | 82 | 1007.7 |
| 20260506025632 | 52 | 225 | 0.0 | 0.0 | 0.25 | 1.62 | 0.50 | 82 | 1007.7 |
| 20260506025231 | 53 | 270 | 0.0 | 0.0 | 0.25 | 1.60 | 0.49 | 82 | 1007.5 |
| 20260506024830 | 53 | 90 | 0.0 | 0.0 | 0.25 | 1.59 | 0.47 | 82 | 1007.8 |
| 20260506024429 | 53 | 90 | 0.0 | 0.0 | 0.25 | 1.59 | 0.46 | 82 | 1008.2 |
| 20260506023426 | 53 | 225 | 0.0 | 0.0 | 0.28 | 1.57 | 0.42 | 81 | 1008.1 |
| 20260506023025 | 53 | 225 | 0.0 | 0.0 | 0.29 | 1.57 | 0.41 | 81 | 1008.0 |
| 20260506022623 | 53 | 0 | 0.0 | 0.0 | 0.27 | 1.54 | 0.40 | 80 | 1008.2 |
| 20260506022222 | 53 | 0 | 0.0 | 0.0 | 0.23 | 1.51 | 0.37 | 80 | 1008.2 |
| 20260506021620 | 54 | 90 | 0.0 | 0.0 | 0.20 | 1.46 | 0.28 | 78 | 1008.3 |
| 20260506021219 | 54 | 135 | 0.0 | 0.0 | 0.21 | 1.46 | 0.27 | 77 | 1008.3 |
| 20260506020817 | 55 | 180 | 0.0 | 0.0 | 0.21 | 1.45 | 0.25 | 77 | 1008.0 |
| 20260506020416 | 55 | 180 | 0.0 | 0.0 | 0.21 | 1.45 | 0.24 | 76 | 1007.7 |
| 20260506020014 | 55 | 180 | 0.0 | 0.0 | 0.21 | 1.45 | 0.23 | 76 | 1007.8 |
| 20260506015814 | 55 | 180 | 0.0 | 0.0 | 0.20 | 1.45 | 0.23 | 76 | 1008.0 |
| 20260506015412 | 55 | 135 | 0.0 | 0.0 | 0.18 | 1.42 | 0.21 | 75 | 1008.0 |
| 20260506015012 | 55 | 225 | 0.0 | 0.0 | 0.17 | 1.41 | 0.20 | 75 | 1008.1 |
| 20260506014610 | 55 | 225 | 0.0 | 0.0 | 0.17 | 1.40 | 0.18 | 75 | 1008.3 |
| 20260506014209 | 55 | 45 | 0.0 | 0.0 | 0.15 | 1.38 | 0.17 | 75 | 1008.6 |
| 20260506013808 | 55 | 45 | 0.0 | 0.0 | 0.12 | 1.35 | 0.15 | 74 | 1008.7 |
| 20260506013406 | 55 | 45 | 0.0 | 0.0 | 0.10 | 1.33 | 0.12 | 75 | 1008.7 |
| 20260506012404 | 55 | 315 | 0.0 | 0.0 | 0.08 | 1.33 | 0.09 | 73 | 1008.6 |
| 20260506012003 | 56 | 45 | 0.0 | 0.0 | 0.07 | 1.32 | 0.08 | 72 | 1008.5 |
| 20260506011602 | 56 | 180 | 0.0 | 0.0 | 0.04 | 1.31 | 0.07 | 72 | 1008.4 |
| 20260506011200 | 56 | 90 | 0.0 | 0.0 | 0.03 | 1.29 | 0.04 | 72 | 1008.5 |
| 20260506010759 | 56 | 0 | 0.0 | 0.0 | 0.02 | 1.29 | 0.03 | 72 | 1008.4 |
| 20260506010157 | 56 | 90 | 0.0 | 0.0 | 0.01 | 1.29 | 0.02 | 71 | 1008.3 |
| 20260506005756 | 56 | 45 | 0.0 | 0.0 | 0.01 | 1.28 | 0.01 | 69 | 1008.3 |
| 20260506005354 | 56 | 45 | 0.0 | 0.0 | 0.01 | 1.28 | 0.01 | 69 | 1008.4 |
| 20260506004953 | 56 | 45 | 0.0 | 0.0 | 0.00 | 1.27 | 0.01 | 68 | 1008.6 |
| 20260506004551 | 56 | 270 | 0.0 | 0.0 | 0.00 | 1.27 | 0.00 | 68 | 1008.6 |
| 20260506004151 | 56 | 135 | 0.0 | 0.0 | 0.00 | 1.27 | 0.00 | 67 | 1008.6 |
| 20260506003950 | 56 | 135 | 0.0 | 0.0 | 0.00 | 1.27 | 0.00 | 67 | 1008.6 |
| 20260506003549 | 56 | 90 | 0.0 | 0.0 | 0.00 | 1.27 | 0.00 | 67 | 1008.5 |
| 20260506003147 | 56 | 90 | 0.0 | 0.0 | 0.00 | 1.27 | 0.00 | 67 | 1008.6 |
| 20260506002746 | 56 | 90 | 0.0 | 0.0 | 0.00 | 1.27 | 0.00 | 67 | 1008.6 |
| 20260506002345 | 56 | 270 | 0.0 | 0.0 | 0.00 | 1.27 | 0.00 | 67 | 1008.6 |
| 20260506001943 | 56 | 270 | 0.0 | 0.0 | 0.00 | 1.27 | 0.00 | 66 | 1008.7 |
| 20260506001542 | 56 | 45 | 0.0 | 0.0 | 0.00 | 1.27 | 0.00 | 66 | 1008.8 |
| 20260506000541 | 56 | 225 | 0.0 | 0.0 | 0.00 | 1.27 | 0.00 | 66 | 1009.0 |
| 20260506000139 | 56 | 225 | 0.0 | 0.0 | 0.00 | 1.27 | 0.00 | 66 | 1008.9 |
| 20260505235738 | 56 | 135 | 0.0 | 0.0 | 0.00 | 1.27 | 0.00 | 66 | 1009.0 |
| 20260505235336 | 56 | 135 | 0.0 | 0.0 | 0.00 | 1.27 | 0.00 | 66 | 1009.1 |